SAS248 EKCH-EKYT

Flight info

Callsign SAS248
Flight time N/A
Altitude 16000
Route GOLGA DCT BAKIT
Aircraft A319/M-SDE3FGHIRWY/LB1

Departure

Time N/A
Airport Copenhagen Kastrup Airport (EKCH)

Arrival

Time 2026-05-03 20:20
Airport Aalborg Airport (EKYT)
Time Latitude Longitude Altitude Speed Heading
2026-05-03 20:15 57.09476 10.22459 2473 ft 207 kts 319°
2026-05-03 20:15 57.10566 10.20839 2381 ft 196 kts 315°
2026-05-03 20:15 57.11318 10.18850 2297 ft 188 kts 286°
2026-05-03 20:15 57.11453 10.16521 2247 ft 183 kts 262°
2026-05-03 20:16 57.11306 10.14218 2215 ft 174 kts 262°
2026-05-03 20:16 57.11182 10.12145 2152 ft 153 kts 262°
2026-05-03 20:16 57.11071 10.10285 2099 ft 142 kts 262°
2026-05-03 20:16 57.10964 10.08516 2055 ft 137 kts 262°
2026-05-03 20:17 57.10862 10.06819 2015 ft 134 kts 262°
2026-05-03 20:17 57.10758 10.05110 1918 ft 136 kts 262°
2026-05-03 20:17 57.10652 10.03408 1721 ft 133 kts 262°
2026-05-03 20:17 57.10547 10.01724 1532 ft 132 kts 262°
2026-05-03 20:18 57.10440 10.00046 1356 ft 132 kts 262°
2026-05-03 20:18 57.10331 9.98365 1177 ft 132 kts 262°
2026-05-03 20:18 57.10222 9.96680 997 ft 133 kts 262°
2026-05-03 20:18 57.10114 9.94985 816 ft 134 kts 263°
2026-05-03 20:19 57.10012 9.93268 637 ft 136 kts 263°
2026-05-03 20:19 57.09898 9.91534 487 ft 137 kts 263°
2026-05-03 20:19 57.09784 9.89808 296 ft 138 kts 264°
2026-05-03 20:19 57.09683 9.88052 93 ft 138 kts 263°
2026-05-03 20:20 57.09566 9.86367 19 ft 120 kts 263°
2026-05-03 20:20 57.09491 9.85140 19 ft 50 kts 263°
2026-05-03 20:20 57.09458 9.84622 19 ft 30 kts 263°
2026-05-03 20:20 57.09440 9.84362 20 ft 12 kts 263°
2026-05-03 20:21 57.09419 9.84298 19 ft 7 kts 195°
2026-05-03 20:21 57.09365 9.84340 19 ft 10 kts 146°
2026-05-03 20:21 57.09299 9.84432 19 ft 14 kts 142°
2026-05-03 20:21 57.09261 9.84602 19 ft 17 kts 85°
2026-05-03 20:22 57.09277 9.84841 19 ft 21 kts 83°
2026-05-03 20:22 57.09295 9.85124 19 ft 24 kts 83°
2026-05-03 20:22 57.09316 9.85447 20 ft 25 kts 84°
2026-05-03 20:22 57.09334 9.85745 19 ft 12 kts 83°
2026-05-03 20:23 57.09325 9.85916 21 ft 15 kts 121°
2026-05-03 20:23 57.09235 9.86038 19 ft 18 kts 143°
2026-05-03 20:23 57.09125 9.86189 19 ft 21 kts 143°
2026-05-03 20:23 57.08998 9.86367 19 ft 24 kts 141°
2026-05-03 20:24 57.08863 9.86566 19 ft 24 kts 142°
2026-05-03 20:24 57.08755 9.86720 19 ft 12 kts 141°
2026-05-03 20:24 57.08702 9.86807 19 ft 6 kts 124°
2026-05-03 20:24 57.08719 9.86885 19 ft 9 kts 55°
2026-05-03 20:25 57.08734 9.86924 20 ft 2 kts 54°
2026-05-03 20:25 57.08739 9.86937 19 ft 0 kts 55°